Location: Firdgum
(53.2488°N, 5.5615°E)
Time: 17:20:29
(UTC+00:00)

Cosmos 405 - Pass Details

Date: 08 December 2019
Orbit: 451 x 467 km, 81.3° (Epoch: 25 January)

Event Time Altitude Azimuth Distance (km) Brightness Sun altitude
Exits shadow 06:22:40 - 343° (NNW) 1,992 5.8 -10.5°
Reaches altitude 10° 06:23:32 10° 342° (NNW) 1,637 5.3 -10.4°
Maximum altitude 06:27:04 64° 260° (W) 521 3.0 -9.9°
Drops below altitude 10° 06:30:34 10° 179° (S) 1,616 6.1 -9.4°
Sets 06:32:39 0° 176° (S) 2,484 7.1 -9.1°
